TimeCST,TemperatureF,Dew PointF,Humidity,Sea Level PressureIn,VisibilityMPH,Wind Direction,Wind SpeedMPH,Gust SpeedMPH,PrecipitationIn,Events,Conditions,WindDirDegrees,DateUTC
12:15 AM,47.3,38.7,72,30.09,10.0,South,3.5,-,N/A,,Clear,180,2012-11-09 06:15:00
12:35 AM,47.1,38.3,71,30.09,10.0,SSE,4.6,-,N/A,,Clear,150,2012-11-09 06:35:00
12:55 AM,44.8,38.1,77,30.08,10.0,ESE,5.8,-,N/A,,Clear,120,2012-11-09 06:55:00
1:15 AM,44.8,37.8,76,30.08,10.0,ESE,4.6,-,N/A,,Clear,120,2012-11-09 07:15:00
1:35 AM,41.7,36.9,83,30.08,10.0,East,3.5,-,N/A,,Clear,100,2012-11-09 07:35:00
1:55 AM,42.4,38.3,85,30.08,10.0,East,5.8,-,N/A,,Clear,100,2012-11-09 07:55:00
2:15 AM,43.7,38.7,82,30.08,10.0,East,4.6,-,N/A,,Clear,100,2012-11-09 08:15:00
2:35 AM,44.2,38.5,80,30.08,10.0,ESE,5.8,-,N/A,,Clear,110,2012-11-09 08:35:00
2:55 AM,43.7,38.5,82,30.07,10.0,ESE,5.8,-,N/A,,Clear,110,2012-11-09 08:55:00
3:15 AM,43.2,38.3,83,30.07,10.0,ESE,6.9,-,N/A,,Clear,120,2012-11-09 09:15:00
3:35 AM,43.2,38.3,83,30.07,10.0,ESE,6.9,-,N/A,,Clear,110,2012-11-09 09:35:00
3:55 AM,43.0,38.3,84,30.07,10.0,ESE,5.8,-,N/A,,Clear,110,2012-11-09 09:55:00
4:15 AM,42.8,38.1,84,30.07,10.0,ESE,5.8,-,N/A,,Clear,110,2012-11-09 10:15:00
4:35 AM,43.0,38.3,84,30.07,10.0,ESE,6.9,-,N/A,,Clear,110,2012-11-09 10:35:00
4:55 AM,43.7,38.7,82,30.07,10.0,ESE,6.9,-,N/A,,Scattered Clouds,110,2012-11-09 10:55:00
5:15 AM,45.0,39.9,82,30.07,10.0,ESE,5.8,-,N/A,,Overcast,110,2012-11-09 11:15:00
5:35 AM,45.7,40.1,81,30.07,10.0,ESE,5.8,-,N/A,,Overcast,110,2012-11-09 11:35:00
6:50 AM,48.2,41.0,76,30.07,10.0,SE,6.9,-,N/A,,Mostly Cloudy,130,2012-11-09 12:50:00
7:50 AM,48.2,41.0,76,30.07,10.0,SE,8.1,-,N/A,,Mostly Cloudy,130,2012-11-09 13:50:00
8:50 AM,53.6,42.8,67,30.06,10.0,SSE,8.1,-,N/A,,Mostly Cloudy,160,2012-11-09 14:50:00
9:50 AM,60.8,42.8,52,30.05,10.0,South,11.5,-,N/A,,Mostly Cloudy,180,2012-11-09 15:50:00
10:50 AM,64.4,46.4,52,30.03,10.0,South,16.1,-,N/A,,Mostly Cloudy,180,2012-11-09 16:50:00
11:50 AM,68.0,48.2,49,29.98,10.0,South,15.0,20.7,N/A,,Scattered Clouds,190,2012-11-09 17:50:00
12:50 PM,71.6,50.0,46,29.96,10.0,South,16.1,-,N/A,,Scattered Clouds,180,2012-11-09 18:50:00
4:50 PM,64.4,51.8,64,29.93,10.0,SSE,9.2,-,N/A,,Scattered Clouds,150,2012-11-09 22:50:00
5:50 PM,64.4,53.6,68,29.94,10.0,SSE,12.7,-,N/A,,Scattered Clouds,160,2012-11-09 23:50:00
6:50 PM,66.2,53.6,64,29.94,10.0,South,16.1,-,N/A,,Clear,170,2012-11-10 00:50:00
7:50 PM,66.2,53.6,64,29.95,10.0,South,13.8,20.7,N/A,,Clear,170,2012-11-10 01:50:00
8:50 PM,64.4,53.6,68,29.96,10.0,South,17.3,23.0,N/A,,Clear,180,2012-11-10 02:50:00
9:15 PM,64.6,54.5,70,29.97,10.0,South,16.1,-,N/A,,Clear,180,2012-11-10 03:15:00
9:35 PM,64.4,54.1,69,29.97,10.0,South,15.0,-,N/A,,Clear,180,2012-11-10 03:35:00
9:50 PM,64.4,53.6,68,29.97,10.0,South,13.8,19.6,N/A,,Clear,180,2012-11-10 03:50:00
9:55 PM,64.4,54.0,69,29.97,10.0,South,13.8,-,N/A,,Clear,190,2012-11-10 03:55:00
10:15 PM,64.4,53.4,67,29.97,10.0,South,13.8,18.4,N/A,,Clear,190,2012-11-10 04:15:00
10:35 PM,64.4,52.3,65,29.98,10.0,SSW,13.8,-,N/A,,Clear,200,2012-11-10 04:35:00
10:55 PM,63.7,51.8,65,29.98,10.0,South,12.7,-,N/A,,Clear,190,2012-11-10 04:55:00
11:15 PM,63.7,51.1,64,29.98,10.0,South,15.0,-,N/A,,Clear,190,2012-11-10 05:15:00
11:35 PM,63.5,50.7,63,29.98,10.0,South,13.8,23.0,N/A,,Clear,190,2012-11-10 05:35:00
11:55 PM,63.9,50.0,61,29.99,10.0,South,15.0,-,N/A,,Clear,190,2012-11-10 05:55:00